owner,sensor,date,latitude,longitude,air_temperature,qcFlag 
COMPS,ioos:station:USF.COMPS:C10:1,2011-09-01T00:00:00Z,27.1690,-82.9260,27.68,1111122 
COMPS,ioos:station:USF.COMPS:C10:1,2011-09-01T00:20:00Z,27.1690,-82.9260,28.5,1111122 
COMPS,ioos:station:USF.COMPS:C10:1,2011-09-01T00:40:00Z,27.1690,-82.9260,28.33,1111122 
COMPS,ioos:station:USF.COMPS:C10:1,2011-09-01T01:00:00Z,27.1690,-82.9260,28.3,1111122 
COMPS,ioos:station:USF.COMPS:C10:1,2011-09-01T01:20:00Z,27.1690,-82.9260,28.18,1111122 
COMPS,ioos:station:USF.COMPS:C10:1,2011-09-01T01:40:00Z,27.1690,-82.9260,27.54,1111122 
COMPS,ioos:station:USF.COMPS:C10:1,2011-09-01T02:00:00Z,27.1690,-82.9260,27.43,1111122 
COMPS,ioos:station:USF.COMPS:C10:1,2011-09-01T02:20:00Z,27.1690,-82.9260,27.65,1111122 
COMPS,ioos:station:USF.COMPS:C10:1,2011-09-01T02:40:00Z,27.1690,-82.9260,27.75,1111122 
COMPS,ioos:station:USF.COMPS:C10:1,2011-09-01T03:00:00Z,27.1690,-82.9260,27.77,1111122 
COMPS,ioos:station:USF.COMPS:C10:1,2011-09-01T03:20:00Z,27.1690,-82.9260,27.77,1111122 
COMPS,ioos:station:USF.COMPS:C10:1,2011-09-01T03:40:00Z,27.1690,-82.9260,27.92,1111122 
COMPS,ioos:station:USF.COMPS:C10:1,2011-09-01T04:00:00Z,27.1690,-82.9260,27.81,1111122 
COMPS,ioos:station:USF.COMPS:C10:1,2011-09-01T04:20:00Z,27.1690,-82.9260,27.83,1111122 
COMPS,ioos:station:USF.COMPS:C10:1,2011-09-01T04:40:00Z,27.1690,-82.9260,27.99,1111122 
COMPS,ioos:station:USF.COMPS:C10:1,2011-09-01T06:00:00Z,27.1690,-82.9260,28.21,1111122 
COMPS,ioos:station:USF.COMPS:C10:1,2011-09-01T19:20:00Z,27.1690,-82.9260,28.77,1111122 
COMPS,ioos:station:USF.COMPS:C10:1,2011-09-01T19:40:00Z,27.1690,-82.9260,28.85,1111122 
COMPS,ioos:station:USF.COMPS:C10:1,2011-09-01T20:00:00Z,27.1690,-82.9260,28.75,1111122 
COMPS,ioos:station:USF.COMPS:C10:1,2011-09-01T20:20:00Z,27.1690,-82.9260,28.88,1111122 
COMPS,ioos:station:USF.COMPS:C10:1,2011-09-01T20:40:00Z,27.1690,-82.9260,28.9,1111122 
COMPS,ioos:station:USF.COMPS:C10:1,2011-09-01T21:00:00Z,27.1690,-82.9260,28.98,1111122 
COMPS,ioos:station:USF.COMPS:C10:1,2011-09-01T21:20:00Z,27.1690,-82.9260,28.92,1111122 
COMPS,ioos:station:USF.COMPS:C10:1,2011-09-01T21:40:00Z,27.1690,-82.9260,28.98,1111122 
COMPS,ioos:station:USF.COMPS:C10:1,2011-09-01T22:00:00Z,27.1690,-82.9260,29.05,1111122 
COMPS,ioos:station:USF.COMPS:C10:1,2011-09-01T22:20:00Z,27.1690,-82.9260,29.14,1111122 
COMPS,ioos:station:USF.COMPS:C10:1,2011-09-01T22:40:00Z,27.1690,-82.9260,29.13,1111122 
COMPS,ioos:station:USF.COMPS:C10:1,2011-09-01T23:00:00Z,27.1690,-82.9260,29.12,1111122 
COMPS,ioos:station:USF.COMPS:C10:1,2011-09-01T23:20:00Z,27.1690,-82.9260,29.17,1111122 
COMPS,ioos:station:USF.COMPS:C10:1,2011-09-01T23:40:00Z,27.1690,-82.9260,29.2,1111122 
COMPS,ioos:station:USF.COMPS:C10:1,2011-09-02T00:00:00Z,27.1690,-82.9260,29.17,1111122 
COMPS,ioos:station:USF.COMPS:C10:1,2011-09-02T00:20:00Z,27.1690,-82.9260,27.0,1111122 
COMPS,ioos:station:USF.COMPS:C10:1,2011-09-02T00:40:00Z,27.1690,-82.9260,26.66,1111122 
COMPS,ioos:station:USF.COMPS:C10:1,2011-09-02T01:00:00Z,27.1690,-82.9260,26.63,1111122 
COMPS,ioos:station:USF.COMPS:C10:1,2011-09-02T01:20:00Z,27.1690,-82.9260,26.96,1111122 
COMPS,ioos:station:USF.COMPS:C10:1,2011-09-02T01:40:00Z,27.1690,-82.9260,27.03,1111122 
COMPS,ioos:station:USF.COMPS:C10:1,2011-09-02T02:00:00Z,27.1690,-82.9260,26.84,1111122 
COMPS,ioos:station:USF.COMPS:C10:1,2011-09-02T02:20:00Z,27.1690,-82.9260,26.73,1111122 
COMPS,ioos:station:USF.COMPS:C10:1,2011-09-02T02:40:00Z,27.1690,-82.9260,26.77,1111122 
COMPS,ioos:station:USF.COMPS:C10:1,2011-09-02T03:00:00Z,27.1690,-82.9260,26.8,1111122 
COMPS,ioos:station:USF.COMPS:C10:1,2011-09-02T03:20:00Z,27.1690,-82.9260,27.24,1111122 
COMPS,ioos:station:USF.COMPS:C10:1,2011-09-02T03:40:00Z,27.1690,-82.9260,27.2,1111122 
COMPS,ioos:station:USF.COMPS:C10:1,2011-09-02T04:00:00Z,27.1690,-82.9260,27.3,1111122 
COMPS,ioos:station:USF.COMPS:C10:1,2011-09-02T04:20:00Z,27.1690,-82.9260,27.23,1111122 
COMPS,ioos:station:USF.COMPS:C10:1,2011-09-02T04:40:00Z,27.1690,-82.9260,27.21,1111122 
COMPS,ioos:station:USF.COMPS:C10:1,2011-09-02T05:00:00Z,27.1690,-82.9260,27.29,1111122 
COMPS,ioos:station:USF.COMPS:C10:1,2011-09-02T05:20:00Z,27.1690,-82.9260,27.22,1111122 
COMPS,ioos:station:USF.COMPS:C10:1,2011-09-02T05:40:00Z,27.1690,-82.9260,27.16,1111122 
COMPS,ioos:station:USF.COMPS:C10:1,2011-09-02T06:00:00Z,27.1690,-82.9260,27.18,1111122 
COMPS,ioos:station:USF.COMPS:C10:1,2011-09-02T06:20:00Z,27.1690,-82.9260,26.81,1111122 
COMPS,ioos:station:USF.COMPS:C10:1,2011-09-02T06:40:00Z,27.1690,-82.9260,26.68,1111122 
COMPS,ioos:station:USF.COMPS:C10:1,2011-09-02T07:00:00Z,27.1690,-82.9260,26.69,1111122 
COMPS,ioos:station:USF.COMPS:C10:1,2011-09-02T07:20:00Z,27.1690,-82.9260,26.64,1111122 
COMPS,ioos:station:USF.COMPS:C10:1,2011-09-02T07:40:00Z,27.1690,-82.9260,26.6,1111122 
COMPS,ioos:station:USF.COMPS:C10:1,2011-09-02T08:00:00Z,27.1690,-82.9260,26.46,1111122 
COMPS,ioos:station:USF.COMPS:C10:1,2011-09-02T08:20:00Z,27.1690,-82.9260,26.39,1111122 
COMPS,ioos:station:USF.COMPS:C10:1,2011-09-02T08:40:00Z,27.1690,-82.9260,26.48,1111122 
COMPS,ioos:station:USF.COMPS:C10:1,2011-09-02T09:00:00Z,27.1690,-82.9260,26.66,1111122 
COMPS,ioos:station:USF.COMPS:C10:1,2011-09-02T09:20:00Z,27.1690,-82.9260,26.7,1111122 
COMPS,ioos:station:USF.COMPS:C10:1,2011-09-02T09:40:00Z,27.1690,-82.9260,26.47,1111122 
COMPS,ioos:station:USF.COMPS:C10:1,2011-09-02T10:00:00Z,27.1690,-82.9260,26.46,1111122 
COMPS,ioos:station:USF.COMPS:C10:1,2011-09-02T10:20:00Z,27.1690,-82.9260,26.52,1111122 
COMPS,ioos:station:USF.COMPS:C10:1,2011-09-02T10:40:00Z,27.1690,-82.9260,26.42,1111122 
COMPS,ioos:station:USF.COMPS:C10:1,2011-09-02T11:00:00Z,27.1690,-82.9260,26.62,1111122 
COMPS,ioos:station:USF.COMPS:C10:1,2011-09-02T11:20:00Z,27.1690,-82.9260,26.68,1111122 
COMPS,ioos:station:USF.COMPS:C10:1,2011-09-02T11:40:00Z,27.1690,-82.9260,26.84,1111122 
COMPS,ioos:station:USF.COMPS:C10:1,2011-09-02T12:00:00Z,27.1690,-82.9260,26.97,1111122 
COMPS,ioos:station:USF.COMPS:C10:1,2011-09-02T12:20:00Z,27.1690,-82.9260,26.81,1111122 
COMPS,ioos:station:USF.COMPS:C10:1,2011-09-02T12:40:00Z,27.1690,-82.9260,27.26,1111122 
COMPS,ioos:station:USF.COMPS:C10:1,2011-09-02T13:00:00Z,27.1690,-82.9260,27.42,1111122 
COMPS,ioos:station:USF.COMPS:C10:1,2011-09-02T13:20:00Z,27.1690,-82.9260,27.22,1111122 
COMPS,ioos:station:USF.COMPS:C10:1,2011-09-02T13:40:00Z,27.1690,-82.9260,27.09,1111122 
COMPS,ioos:station:USF.COMPS:C10:1,2011-09-02T14:00:00Z,27.1690,-82.9260,27.04,1111122 
COMPS,ioos:station:USF.COMPS:C10:1,2011-09-02T14:20:00Z,27.1690,-82.9260,27.0,1111122 
COMPS,ioos:station:USF.COMPS:C10:1,2011-09-02T14:40:00Z,27.1690,-82.9260,27.08,1111122 
COMPS,ioos:station:USF.COMPS:C10:1,2011-09-02T15:00:00Z,27.1690,-82.9260,27.32,1111122 
COMPS,ioos:station:USF.COMPS:C10:1,2011-09-02T15:20:00Z,27.1690,-82.9260,27.26,1111122 
COMPS,ioos:station:USF.COMPS:C10:1,2011-09-02T15:40:00Z,27.1690,-82.9260,27.38,1111122 
COMPS,ioos:station:USF.COMPS:C10:1,2011-09-02T16:00:00Z,27.1690,-82.9260,27.52,1111122 
COMPS,ioos:station:USF.COMPS:C10:1,2011-09-02T16:20:00Z,27.1690,-82.9260,27.85,1111122 
COMPS,ioos:station:USF.COMPS:C10:1,2011-09-02T16:40:00Z,27.1690,-82.9260,27.83,1111122 
COMPS,ioos:station:USF.COMPS:C10:1,2011-09-02T17:00:00Z,27.1690,-82.9260,27.93,1111122 
COMPS,ioos:station:USF.COMPS:C10:1,2011-09-02T17:20:00Z,27.1690,-82.9260,28.11,1111122 
COMPS,ioos:station:USF.COMPS:C10:1,2011-09-02T17:40:00Z,27.1690,-82.9260,28.48,1111122 
COMPS,ioos:station:USF.COMPS:C10:1,2011-09-02T18:00:00Z,27.1690,-82.9260,28.65,1111122 
COMPS,ioos:station:USF.COMPS:C10:1,2011-09-02T18:20:00Z,27.1690,-82.9260,28.91,1111122 
COMPS,ioos:station:USF.COMPS:C10:1,2011-09-02T18:40:00Z,27.1690,-82.9260,29.04,1111122 
COMPS,ioos:station:USF.COMPS:C10:1,2011-09-02T19:00:00Z,27.1690,-82.9260,29.17,1111122 
COMPS,ioos:station:USF.COMPS:C10:1,2011-09-02T19:20:00Z,27.1690,-82.9260,29.17,1111122 
COMPS,ioos:station:USF.COMPS:C10:1,2011-09-02T19:40:00Z,27.1690,-82.9260,29.12,1111122 
COMPS,ioos:station:USF.COMPS:C10:1,2011-09-02T20:00:00Z,27.1690,-82.9260,29.24,1111122 
COMPS,ioos:station:USF.COMPS:C10:1,2011-09-02T20:20:00Z,27.1690,-82.9260,29.26,1111122 
COMPS,ioos:station:USF.COMPS:C10:1,2011-09-02T20:40:00Z,27.1690,-82.9260,29.33,1111122 
COMPS,ioos:station:USF.COMPS:C10:1,2011-09-02T21:00:00Z,27.1690,-82.9260,29.42,1111122 
COMPS,ioos:station:USF.COMPS:C10:1,2011-09-02T21:20:00Z,27.1690,-82.9260,29.56,1111122 
COMPS,ioos:station:USF.COMPS:C10:1,2011-09-02T21:40:00Z,27.1690,-82.9260,29.67,1111122 
COMPS,ioos:station:USF.COMPS:C10:1,2011-09-02T22:00:00Z,27.1690,-82.9260,29.82,1111122 
COMPS,ioos:station:USF.COMPS:C10:1,2011-09-02T22:20:00Z,27.1690,-82.9260,29.73,1111122 
COMPS,ioos:station:USF.COMPS:C10:1,2011-09-02T22:40:00Z,27.1690,-82.9260,29.69,1111122 
COMPS,ioos:station:USF.COMPS:C10:1,2011-09-02T23:00:00Z,27.1690,-82.9260,29.65,1111122 
COMPS,ioos:station:USF.COMPS:C10:1,2011-09-02T23:20:00Z,27.1690,-82.9260,29.54,1111122 
COMPS,ioos:station:USF.COMPS:C10:1,2011-09-02T23:40:00Z,27.1690,-82.9260,29.48,1111122 
COMPS,ioos:station:USF.COMPS:C10:1,2011-09-03T00:00:00Z,27.1690,-82.9260,29.56,1111122 
COMPS,ioos:station:USF.COMPS:C10:1,2011-09-03T00:20:00Z,27.1690,-82.9260,29.58,1111122 
COMPS,ioos:station:USF.COMPS:C10:1,2011-09-03T00:40:00Z,27.1690,-82.9260,29.65,1111122 
COMPS,ioos:station:USF.COMPS:C10:1,2011-09-03T01:00:00Z,27.1690,-82.9260,29.59,1111122 
COMPS,ioos:station:USF.COMPS:C10:1,2011-09-03T01:20:00Z,27.1690,-82.9260,29.55,1111122 
COMPS,ioos:station:USF.COMPS:C10:1,2011-09-03T01:40:00Z,27.1690,-82.9260,29.4,1111122 
COMPS,ioos:station:USF.COMPS:C10:1,2011-09-03T02:00:00Z,27.1690,-82.9260,29.02,1111122 
COMPS,ioos:station:USF.COMPS:C10:1,2011-09-03T02:20:00Z,27.1690,-82.9260,29.22,1111122 
COMPS,ioos:station:USF.COMPS:C10:1,2011-09-03T02:40:00Z,27.1690,-82.9260,29.2,1111122 
COMPS,ioos:station:USF.COMPS:C10:1,2011-09-03T03:00:00Z,27.1690,-82.9260,29.1,1111122 
COMPS,ioos:station:USF.COMPS:C10:1,2011-09-03T03:20:00Z,27.1690,-82.9260,29.19,1111122 
COMPS,ioos:station:USF.COMPS:C10:1,2011-09-03T03:40:00Z,27.1690,-82.9260,29.11,1111122 
COMPS,ioos:station:USF.COMPS:C10:1,2011-09-03T04:00:00Z,27.1690,-82.9260,29.12,1111122 
COMPS,ioos:station:USF.COMPS:C10:1,2011-09-03T04:20:00Z,27.1690,-82.9260,28.44,1111122 
COMPS,ioos:station:USF.COMPS:C10:1,2011-09-03T04:40:00Z,27.1690,-82.9260,28.53,1111122 
COMPS,ioos:station:USF.COMPS:C10:1,2011-09-03T05:00:00Z,27.1690,-82.9260,28.43,1111122 
COMPS,ioos:station:USF.COMPS:C10:1,2011-09-03T05:20:00Z,27.1690,-82.9260,28.13,1111122 
COMPS,ioos:station:USF.COMPS:C10:1,2011-09-03T05:40:00Z,27.1690,-82.9260,27.93,1111122 
COMPS,ioos:station:USF.COMPS:C10:1,2011-09-03T06:00:00Z,27.1690,-82.9260,27.98,1111122 
COMPS,ioos:station:USF.COMPS:C10:1,2011-09-03T06:20:00Z,27.1690,-82.9260,28.02,1111122 
COMPS,ioos:station:USF.COMPS:C10:1,2011-09-03T06:40:00Z,27.1690,-82.9260,27.95,1111122 
COMPS,ioos:station:USF.COMPS:C10:1,2011-09-03T07:00:00Z,27.1690,-82.9260,27.91,1111122 
COMPS,ioos:station:USF.COMPS:C10:1,2011-09-03T07:20:00Z,27.1690,-82.9260,27.69,1111122 
COMPS,ioos:station:USF.COMPS:C10:1,2011-09-03T07:40:00Z,27.1690,-82.9260,27.6,1111122 
COMPS,ioos:station:USF.COMPS:C10:1,2011-09-03T08:00:00Z,27.1690,-82.9260,27.64,1111122 
COMPS,ioos:station:USF.COMPS:C10:1,2011-09-03T08:20:00Z,27.1690,-82.9260,27.63,1111122 
COMPS,ioos:station:USF.COMPS:C10:1,2011-09-03T08:40:00Z,27.1690,-82.9260,27.58,1111122 
COMPS,ioos:station:USF.COMPS:C10:1,2011-09-03T09:00:00Z,27.1690,-82.9260,27.53,1111122 
COMPS,ioos:station:USF.COMPS:C10:1,2011-09-03T09:20:00Z,27.1690,-82.9260,27.47,1111122 
COMPS,ioos:station:USF.COMPS:C10:1,2011-09-03T09:40:00Z,27.1690,-82.9260,27.45,1111122 
COMPS,ioos:station:USF.COMPS:C10:1,2011-09-03T10:00:00Z,27.1690,-82.9260,27.42,1111122 
COMPS,ioos:station:USF.COMPS:C10:1,2011-09-03T10:20:00Z,27.1690,-82.9260,27.48,1111122 
COMPS,ioos:station:USF.COMPS:C10:1,2011-09-03T10:40:00Z,27.1690,-82.9260,27.44,1111122 
COMPS,ioos:station:USF.COMPS:C10:1,2011-09-03T11:00:00Z,27.1690,-82.9260,27.32,1111122 
COMPS,ioos:station:USF.COMPS:C10:1,2011-09-03T11:20:00Z,27.1690,-82.9260,27.16,1111122 
COMPS,ioos:station:USF.COMPS:C10:1,2011-09-03T11:40:00Z,27.1690,-82.9260,27.26,1111122 
COMPS,ioos:station:USF.COMPS:C10:1,2011-09-03T12:00:00Z,27.1690,-82.9260,27.25,1111122 
COMPS,ioos:station:USF.COMPS:C10:1,2011-09-03T12:20:00Z,27.1690,-82.9260,27.26,1111122 
COMPS,ioos:station:USF.COMPS:C10:1,2011-09-03T12:40:00Z,27.1690,-82.9260,27.28,1111122 
COMPS,ioos:station:USF.COMPS:C10:1,2011-09-03T13:00:00Z,27.1690,-82.9260,27.18,1111122 
COMPS,ioos:station:USF.COMPS:C10:1,2011-09-03T13:20:00Z,27.1690,-82.9260,27.19,1111122 
COMPS,ioos:station:USF.COMPS:C10:1,2011-09-03T13:40:00Z,27.1690,-82.9260,27.27,1111122 
COMPS,ioos:station:USF.COMPS:C10:1,2011-09-03T14:00:00Z,27.1690,-82.9260,27.53,1111122 
COMPS,ioos:station:USF.COMPS:C10:1,2011-09-03T14:20:00Z,27.1690,-82.9260,27.42,1111122 
COMPS,ioos:station:USF.COMPS:C10:1,2011-09-03T14:40:00Z,27.1690,-82.9260,27.57,1111122 
COMPS,ioos:station:USF.COMPS:C10:1,2011-09-03T15:00:00Z,27.1690,-82.9260,27.55,1111122 
COMPS,ioos:station:USF.COMPS:C10:1,2011-09-03T15:20:00Z,27.1690,-82.9260,27.78,1111122 
COMPS,ioos:station:USF.COMPS:C10:1,2011-09-03T15:40:00Z,27.1690,-82.9260,27.9,1111122 
COMPS,ioos:station:USF.COMPS:C10:1,2011-09-03T16:00:00Z,27.1690,-82.9260,28.21,1111122 
COMPS,ioos:station:USF.COMPS:C10:1,2011-09-03T16:20:00Z,27.1690,-82.9260,28.31,1111122 
COMPS,ioos:station:USF.COMPS:C10:1,2011-09-03T16:40:00Z,27.1690,-82.9260,28.48,1111122 
COMPS,ioos:station:USF.COMPS:C10:1,2011-09-03T17:00:00Z,27.1690,-82.9260,28.58,1111122 
COMPS,ioos:station:USF.COMPS:C10:1,2011-09-03T17:20:00Z,27.1690,-82.9260,28.64,1111122 
COMPS,ioos:station:USF.COMPS:C10:1,2011-09-03T17:40:00Z,27.1690,-82.9260,28.71,1111122 
COMPS,ioos:station:USF.COMPS:C10:1,2011-09-03T18:00:00Z,27.1690,-82.9260,28.71,1111122 
COMPS,ioos:station:USF.COMPS:C10:1,2011-09-03T18:20:00Z,27.1690,-82.9260,28.85,1111122 
COMPS,ioos:station:USF.COMPS:C10:1,2011-09-03T18:40:00Z,27.1690,-82.9260,28.86,1111122 
COMPS,ioos:station:USF.COMPS:C10:1,2011-09-03T19:00:00Z,27.1690,-82.9260,28.85,1111122 
COMPS,ioos:station:USF.COMPS:C10:1,2011-09-03T19:20:00Z,27.1690,-82.9260,28.9,1111122 
COMPS,ioos:station:USF.COMPS:C10:1,2011-09-03T19:40:00Z,27.1690,-82.9260,28.94,1111122 
COMPS,ioos:station:USF.COMPS:C10:1,2011-09-03T20:00:00Z,27.1690,-82.9260,29.09,1111122 
COMPS,ioos:station:USF.COMPS:C10:1,2011-09-03T20:20:00Z,27.1690,-82.9260,29.01,1111122 
COMPS,ioos:station:USF.COMPS:C10:1,2011-09-03T20:40:00Z,27.1690,-82.9260,29.11,1111122 
COMPS,ioos:station:USF.COMPS:C10:1,2011-09-03T21:00:00Z,27.1690,-82.9260,29.21,1111122 
COMPS,ioos:station:USF.COMPS:C10:1,2011-09-03T21:20:00Z,27.1690,-82.9260,29.09,1111122 
COMPS,ioos:station:USF.COMPS:C10:1,2011-09-03T21:40:00Z,27.1690,-82.9260,29.14,1111122 
COMPS,ioos:station:USF.COMPS:C10:1,2011-09-03T22:00:00Z,27.1690,-82.9260,29.08,1111122 
COMPS,ioos:station:USF.COMPS:C10:1,2011-09-03T22:20:00Z,27.1690,-82.9260,28.98,1111122 
COMPS,ioos:station:USF.COMPS:C10:1,2011-09-03T22:40:00Z,27.1690,-82.9260,28.98,1111122 
COMPS,ioos:station:USF.COMPS:C10:1,2011-09-03T23:00:00Z,27.1690,-82.9260,29.04,1111122 
COMPS,ioos:station:USF.COMPS:C10:1,2011-09-03T23:20:00Z,27.1690,-82.9260,29.07,1111122 
COMPS,ioos:station:USF.COMPS:C10:1,2011-09-03T23:40:00Z,27.1690,-82.9260,29.11,1111122 
COMPS,ioos:station:USF.COMPS:C10:1,2011-09-04T00:00:00Z,27.1690,-82.9260,28.69,1111122 
COMPS,ioos:station:USF.COMPS:C10:1,2011-09-04T00:20:00Z,27.1690,-82.9260,28.34,1111122 
COMPS,ioos:station:USF.COMPS:C10:1,2011-09-04T00:40:00Z,27.1690,-82.9260,27.95,1111122 
COMPS,ioos:station:USF.COMPS:C10:1,2011-09-04T01:00:00Z,27.1690,-82.9260,28.21,1111122 
COMPS,ioos:station:USF.COMPS:C10:1,2011-09-04T01:20:00Z,27.1690,-82.9260,28.08,1111122 
COMPS,ioos:station:USF.COMPS:C10:1,2011-09-04T01:40:00Z,27.1690,-82.9260,27.89,1111122 
COMPS,ioos:station:USF.COMPS:C10:1,2011-09-04T02:00:00Z,27.1690,-82.9260,28.0,1111122 
COMPS,ioos:station:USF.COMPS:C10:1,2011-09-04T02:20:00Z,27.1690,-82.9260,27.99,1111122 
COMPS,ioos:station:USF.COMPS:C10:1,2011-09-04T02:40:00Z,27.1690,-82.9260,27.92,1111122 
COMPS,ioos:station:USF.COMPS:C10:1,2011-09-04T03:00:00Z,27.1690,-82.9260,28.11,1111122 
COMPS,ioos:station:USF.COMPS:C10:1,2011-09-04T03:20:00Z,27.1690,-82.9260,28.0,1111122 
COMPS,ioos:station:USF.COMPS:C10:1,2011-09-04T03:40:00Z,27.1690,-82.9260,27.96,1111122 
COMPS,ioos:station:USF.COMPS:C10:1,2011-09-04T04:00:00Z,27.1690,-82.9260,28.18,1111122 
COMPS,ioos:station:USF.COMPS:C10:1,2011-09-04T04:20:00Z,27.1690,-82.9260,28.13,1111122 
COMPS,ioos:station:USF.COMPS:C10:1,2011-09-04T04:40:00Z,27.1690,-82.9260,28.12,1111122 
COMPS,ioos:station:USF.COMPS:C10:1,2011-09-04T06:00:00Z,27.1690,-82.9260,28.15,1111122 
COMPS,ioos:station:USF.COMPS:C10:1,2011-09-04T06:20:00Z,27.1690,-82.9260,28.11,1111122 
COMPS,ioos:station:USF.COMPS:C10:1,2011-09-04T06:40:00Z,27.1690,-82.9260,28.22,1111122 
COMPS,ioos:station:USF.COMPS:C10:1,2011-09-04T07:00:00Z,27.1690,-82.9260,28.21,1111122 
COMPS,ioos:station:USF.COMPS:C10:1,2011-09-04T07:20:00Z,27.1690,-82.9260,28.09,1111122 
COMPS,ioos:station:USF.COMPS:C10:1,2011-09-04T07:40:00Z,27.1690,-82.9260,28.09,1111122 
COMPS,ioos:station:USF.COMPS:C10:1,2011-09-04T08:00:00Z,27.1690,-82.9260,28.19,1111122 
COMPS,ioos:station:USF.COMPS:C10:1,2011-09-04T08:20:00Z,27.1690,-82.9260,28.08,1111122 
COMPS,ioos:station:USF.COMPS:C10:1,2011-09-04T08:40:00Z,27.1690,-82.9260,28.13,1111122 
COMPS,ioos:station:USF.COMPS:C10:1,2011-09-04T09:00:00Z,27.1690,-82.9260,28.18,1111122 
COMPS,ioos:station:USF.COMPS:C10:1,2011-09-04T09:20:00Z,27.1690,-82.9260,28.12,1111122 
COMPS,ioos:station:USF.COMPS:C10:1,2011-09-04T09:40:00Z,27.1690,-82.9260,28.05,1111122 
COMPS,ioos:station:USF.COMPS:C10:1,2011-09-04T10:00:00Z,27.1690,-82.9260,28.15,1111122 
COMPS,ioos:station:USF.COMPS:C10:1,2011-09-04T10:20:00Z,27.1690,-82.9260,28.3,1111122 
COMPS,ioos:station:USF.COMPS:C10:1,2011-09-04T10:40:00Z,27.1690,-82.9260,28.47,1111122 
COMPS,ioos:station:USF.COMPS:C10:1,2011-09-04T11:00:00Z,27.1690,-82.9260,28.56,1111122 
COMPS,ioos:station:USF.COMPS:C10:1,2011-09-04T11:20:00Z,27.1690,-82.9260,28.58,1111122 
COMPS,ioos:station:USF.COMPS:C10:1,2011-09-04T11:40:00Z,27.1690,-82.9260,28.5,1111122 
COMPS,ioos:station:USF.COMPS:C10:1,2011-09-04T12:00:00Z,27.1690,-82.9260,28.53,1111122 
COMPS,ioos:station:USF.COMPS:C10:1,2011-09-04T12:20:00Z,27.1690,-82.9260,28.62,1111122 
COMPS,ioos:station:USF.COMPS:C10:1,2011-09-04T12:40:00Z,27.1690,-82.9260,28.68,1111122 
COMPS,ioos:station:USF.COMPS:C10:1,2011-09-04T13:00:00Z,27.1690,-82.9260,28.67,1111122 
COMPS,ioos:station:USF.COMPS:C10:1,2011-09-04T13:20:00Z,27.1690,-82.9260,28.69,1111122 
COMPS,ioos:station:USF.COMPS:C10:1,2011-09-04T13:40:00Z,27.1690,-82.9260,28.83,1111122 
COMPS,ioos:station:USF.COMPS:C10:1,2011-09-04T14:00:00Z,27.1690,-82.9260,28.97,1111122 
COMPS,ioos:station:USF.COMPS:C10:1,2011-09-04T14:20:00Z,27.1690,-82.9260,26.49,1111122 
COMPS,ioos:station:USF.COMPS:C10:1,2011-09-04T14:40:00Z,27.1690,-82.9260,25.91,1111122 
COMPS,ioos:station:USF.COMPS:C10:1,2011-09-04T15:00:00Z,27.1690,-82.9260,27.74,1111122 
COMPS,ioos:station:USF.COMPS:C10:1,2011-09-04T15:20:00Z,27.1690,-82.9260,28.75,1111122 
COMPS,ioos:station:USF.COMPS:C10:1,2011-09-04T15:40:00Z,27.1690,-82.9260,28.79,1111122 
COMPS,ioos:station:USF.COMPS:C10:1,2011-09-04T16:00:00Z,27.1690,-82.9260,29.16,1111122 
COMPS,ioos:station:USF.COMPS:C10:1,2011-09-04T16:20:00Z,27.1690,-82.9260,29.48,1111122 
COMPS,ioos:station:USF.COMPS:C10:1,2011-09-04T16:40:00Z,27.1690,-82.9260,28.9,1111122 
COMPS,ioos:station:USF.COMPS:C10:1,2011-09-04T17:00:00Z,27.1690,-82.9260,29.17,1111122 
COMPS,ioos:station:USF.COMPS:C10:1,2011-09-04T17:20:00Z,27.1690,-82.9260,29.53,1111122 
COMPS,ioos:station:USF.COMPS:C10:1,2011-09-04T17:40:00Z,27.1690,-82.9260,29.5,1111122 
COMPS,ioos:station:USF.COMPS:C10:1,2011-09-04T18:00:00Z,27.1690,-82.9260,29.52,1111122 
COMPS,ioos:station:USF.COMPS:C10:1,2011-09-04T18:20:00Z,27.1690,-82.9260,29.65,1111122 
COMPS,ioos:station:USF.COMPS:C10:1,2011-09-04T18:40:00Z,27.1690,-82.9260,29.62,1111122 
COMPS,ioos:station:USF.COMPS:C10:1,2011-09-04T19:00:00Z,27.1690,-82.9260,29.23,1111122 
COMPS,ioos:station:USF.COMPS:C10:1,2011-09-04T19:20:00Z,27.1690,-82.9260,29.17,1111122 
COMPS,ioos:station:USF.COMPS:C10:1,2011-09-04T19:40:00Z,27.1690,-82.9260,29.27,1111122 
COMPS,ioos:station:USF.COMPS:C10:1,2011-09-04T20:00:00Z,27.1690,-82.9260,29.39,1111122 
COMPS,ioos:station:USF.COMPS:C10:1,2011-09-04T20:20:00Z,27.1690,-82.9260,29.64,1111122 
COMPS,ioos:station:USF.COMPS:C10:1,2011-09-04T20:40:00Z,27.1690,-82.9260,29.7,1111122 
COMPS,ioos:station:USF.COMPS:C10:1,2011-09-04T21:00:00Z,27.1690,-82.9260,29.73,1111122 
COMPS,ioos:station:USF.COMPS:C10:1,2011-09-04T21:20:00Z,27.1690,-82.9260,29.59,1111122 
COMPS,ioos:station:USF.COMPS:C10:1,2011-09-04T21:40:00Z,27.1690,-82.9260,29.62,1111122 
COMPS,ioos:station:USF.COMPS:C10:1,2011-09-04T22:00:00Z,27.1690,-82.9260,29.72,1111122 
COMPS,ioos:station:USF.COMPS:C10:1,2011-09-04T22:20:00Z,27.1690,-82.9260,29.71,1111122 
COMPS,ioos:station:USF.COMPS:C10:1,2011-09-04T22:40:00Z,27.1690,-82.9260,29.69,1111122 
COMPS,ioos:station:USF.COMPS:C10:1,2011-09-04T23:00:00Z,27.1690,-82.9260,29.75,1111122 
COMPS,ioos:station:USF.COMPS:C10:1,2011-09-04T23:20:00Z,27.1690,-82.9260,29.65,1111122 
COMPS,ioos:station:USF.COMPS:C10:1,2011-09-04T23:40:00Z,27.1690,-82.9260,29.75,1111122 
COMPS,ioos:station:USF.COMPS:C10:1,2011-09-05T00:00:00Z,27.1690,-82.9260,29.7,1111122 
COMPS,ioos:station:USF.COMPS:C10:1,2011-09-05T00:20:00Z,27.1690,-82.9260,29.78,1111122 
COMPS,ioos:station:USF.COMPS:C10:1,2011-09-05T00:40:00Z,27.1690,-82.9260,29.75,1111122 
COMPS,ioos:station:USF.COMPS:C10:1,2011-09-05T01:00:00Z,27.1690,-82.9260,29.72,1111122 
COMPS,ioos:station:USF.COMPS:C10:1,2011-09-05T01:20:00Z,27.1690,-82.9260,29.74,1111122 
COMPS,ioos:station:USF.COMPS:C10:1,2011-09-05T01:40:00Z,27.1690,-82.9260,29.69,1111122 
COMPS,ioos:station:USF.COMPS:C10:1,2011-09-05T02:00:00Z,27.1690,-82.9260,29.71,1111122 
COMPS,ioos:station:USF.COMPS:C10:1,2011-09-05T02:20:00Z,27.1690,-82.9260,29.71,1111122 
COMPS,ioos:station:USF.COMPS:C10:1,2011-09-05T02:40:00Z,27.1690,-82.9260,29.69,1111122 
COMPS,ioos:station:USF.COMPS:C10:1,2011-09-05T03:00:00Z,27.1690,-82.9260,29.64,1111122 
COMPS,ioos:station:USF.COMPS:C10:1,2011-09-05T03:20:00Z,27.1690,-82.9260,29.67,1111122 
COMPS,ioos:station:USF.COMPS:C10:1,2011-09-05T03:40:00Z,27.1690,-82.9260,29.64,1111122 
COMPS,ioos:station:USF.COMPS:C10:1,2011-09-05T04:00:00Z,27.1690,-82.9260,29.68,1111122 
COMPS,ioos:station:USF.COMPS:C10:1,2011-09-05T04:20:00Z,27.1690,-82.9260,29.64,1111122 
COMPS,ioos:station:USF.COMPS:C10:1,2011-09-05T04:40:00Z,27.1690,-82.9260,29.66,1111122 
COMPS,ioos:station:USF.COMPS:C10:1,2011-09-05T06:00:00Z,27.1690,-82.9260,29.64,1111122 
COMPS,ioos:station:USF.COMPS:C10:1,2011-09-05T06:20:00Z,27.1690,-82.9260,29.61,1111122 
COMPS,ioos:station:USF.COMPS:C10:1,2011-09-05T06:40:00Z,27.1690,-82.9260,29.6,1111122 
COMPS,ioos:station:USF.COMPS:C10:1,2011-09-05T07:00:00Z,27.1690,-82.9260,29.58,1111122 
COMPS,ioos:station:USF.COMPS:C10:1,2011-09-05T07:20:00Z,27.1690,-82.9260,29.55,1111122 
COMPS,ioos:station:USF.COMPS:C10:1,2011-09-05T07:40:00Z,27.1690,-82.9260,29.54,1111122 
COMPS,ioos:station:USF.COMPS:C10:1,2011-09-05T08:00:00Z,27.1690,-82.9260,29.57,1111122 
COMPS,ioos:station:USF.COMPS:C10:1,2011-09-05T08:20:00Z,27.1690,-82.9260,29.62,1111122 
COMPS,ioos:station:USF.COMPS:C10:1,2011-09-05T08:40:00Z,27.1690,-82.9260,29.64,1111122 
COMPS,ioos:station:USF.COMPS:C10:1,2011-09-05T09:00:00Z,27.1690,-82.9260,29.48,1111122 
COMPS,ioos:station:USF.COMPS:C10:1,2011-09-05T09:20:00Z,27.1690,-82.9260,29.53,1111122 
COMPS,ioos:station:USF.COMPS:C10:1,2011-09-05T09:40:00Z,27.1690,-82.9260,29.64,1111122 
COMPS,ioos:station:USF.COMPS:C10:1,2011-09-05T10:00:00Z,27.1690,-82.9260,29.59,1111122 
COMPS,ioos:station:USF.COMPS:C10:1,2011-09-05T10:20:00Z,27.1690,-82.9260,29.58,1111122 